Weather History for Sylvania, GA

Change the Weather History Date:

Sunday, March 16, 2014

  Actual Average (KSAV) Record (KSAV)
Temperature  
Mean Temperature 60 °F 59 °F  
Max Temperature 66 °F 71 °F 87 °F (1977)
Min Temperature 55 °F 48 °F 26 °F (1890)
Degree Days  
Heating Degree Days 4 7  
Month to date heating degree days 130  
Since 1 July heating degree days 1647  
Cooling Degree Days 0 1  
Month to date cooling degree days 16  
Year to date cooling degree days 26  
Growing Degree Days 10 (Base 50)    
Moisture  
Dew Point 56 °F    
Average Humidity 85    
Maximum Humidity 92    
Minimum Humidity 70    
Precipitation  
Precipitation 0.00 in 0.12 in 2.32 in (1972)
Month to date precipitation 1.93  
Year to date precipitation 8.41  
Sea Level Pressure  
Sea Level Pressure 29.88 in    
Wind  
Wind Speed 3 mph (SE)    
Max Wind Speed 9 mph    
Max Gust Speed 16 mph    
Visibility 8 miles    
Events Rain , Thunderstorm    
T = Trace of Precipitation, MM = Missing Value Source: NWS Daily Summary

Daily Weather History Graph

Daily Weather History Graph

Search for Another Location

Airport:

Trip Planner

Search our weather history database for the weather conditions in past years. The results will help you decide how hot, cold, wet, or windy it might be!

Date:

Astronomy

Mar. 16, 2014 Rise Set
Actual Time 7:35 AM EDT 7:35 PM EDT
Civil Twilight 7:10 AM EDT 7:59 PM EDT
Nautical Twilight 6:42 AM EDT 8:28 PM EDT
Astronomical Twilight 6:13 AM EDT 8:57 PM EDT
Moon 7:48 PM EDT (3/16) 7:19 AM EDT (3/16)
Length of Visible Light 12h 48m
Length of Day
11h 59m
Full, 100% of the Moon is Illuminated
Mar 16
Full
Mar 16
Full
Mar 23
Last Quarter
Mar 30
New
Apr 7
First Quarter

Hourly Weather History & Observations

Time (EDT) Temp. Dew Point Humidity Pressure Visibility Wind Dir Wind Speed Gust Speed Precip Events Conditions
12:15 AM 57.7 °F 48.0 °F 70% 30.05 in 10.0 mi East 3.5 mph - N/A   Clear
12:35 AM 56.5 °F 48.6 °F 75% 30.05 in 10.0 mi Calm Calm - N/A   Clear
12:55 AM 57.0 °F 48.4 °F 73% 30.05 in 10.0 mi Calm Calm - N/A   Clear
1:15 AM 56.8 °F 48.6 °F 74% 30.05 in 10.0 mi Calm Calm - N/A   Clear
1:35 AM 55.4 °F 49.3 °F 80% 30.04 in 10.0 mi Calm Calm - N/A   Mostly Cloudy
1:55 AM 56.5 °F 49.3 °F 77% 30.04 in 10.0 mi Calm Calm - N/A   Scattered Clouds
2:15 AM 56.7 °F 49.5 °F 77% 30.04 in 10.0 mi SE 3.5 mph - N/A   Clear
2:35 AM 56.8 °F 50.0 °F 78% 30.03 in 10.0 mi Calm Calm - N/A   Clear
2:55 AM 56.7 °F 50.2 °F 79% 30.04 in 10.0 mi Calm Calm - N/A   Clear
3:15 AM 56.3 °F 50.4 °F 80% 30.03 in 10.0 mi Calm Calm - N/A   Scattered Clouds
3:35 AM 56.1 °F 50.4 °F 81% 30.01 in 10.0 mi Calm Calm - N/A   Overcast
3:55 AM 56.8 °F 50.7 °F 80% 30.01 in 10.0 mi Calm Calm - N/A   Overcast
4:15 AM 57.2 °F 50.9 °F 79% 29.99 in 10.0 mi Calm Calm - N/A   Overcast
4:35 AM 56.8 °F 50.9 °F 80% 29.99 in 10.0 mi Calm Calm - N/A   Overcast
4:55 AM 56.7 °F 50.9 °F 81% 29.97 in 10.0 mi SE 3.5 mph - N/A   Overcast
5:15 AM 57.2 °F 51.1 °F 80% 29.96 in 10.0 mi SSE 3.5 mph - N/A   Overcast
5:35 AM 57.2 °F 51.3 °F 81% 29.95 in 10.0 mi Calm Calm - N/A   Overcast
5:55 AM 57.6 °F 51.4 °F 80% 29.94 in 10.0 mi Calm Calm - N/A   Overcast
6:15 AM 57.6 °F 51.8 °F 81% 29.95 in 10.0 mi Calm Calm - N/A   Overcast
6:35 AM 57.2 °F 51.8 °F 82% 29.94 in 10.0 mi ESE 3.5 mph - N/A   Overcast
6:55 AM 57.4 °F 52.0 °F 82% 29.93 in 10.0 mi East 3.5 mph - N/A   Overcast
7:15 AM 57.7 °F 52.3 °F 82% 29.93 in 10.0 mi ESE 3.5 mph - N/A   Overcast
7:35 AM 58.1 °F 52.3 °F 81% 29.93 in 10.0 mi Calm Calm - N/A   Overcast
8:15 AM 58.1 °F 52.9 °F 83% 29.92 in 10.0 mi ESE 3.5 mph - N/A   Overcast
8:35 AM 58.5 °F 53.2 °F 83% 29.91 in 10.0 mi ESE 4.6 mph - N/A   Overcast
8:55 AM 59.0 °F 53.8 °F 83% 29.91 in 10.0 mi Calm Calm - N/A   Overcast
9:15 AM 59.7 °F 54.5 °F 83% 29.91 in 10.0 mi Calm Calm - N/A   Overcast
9:35 AM 60.3 °F 54.9 °F 82% 29.89 in 10.0 mi SE 4.6 mph - N/A   Overcast
9:55 AM 61.0 °F 55.6 °F 82% 29.88 in 10.0 mi SSE 4.6 mph - N/A   Overcast
10:15 AM 62.8 °F 56.5 °F 80% 29.88 in 10.0 mi South 3.5 mph - N/A   Overcast
10:35 AM 63.3 °F 57.0 °F 80% 29.86 in 10.0 mi South 4.6 mph - N/A   Overcast
10:55 AM 64.6 °F 57.4 °F 77% 29.84 in 10.0 mi SSE 5.8 mph - N/A   Overcast
11:15 AM 65.5 °F 57.6 °F 76% 29.85 in 10.0 mi South 5.8 mph - N/A   Overcast
11:35 AM 66.2 °F 57.6 °F 74% 29.86 in 10.0 mi Calm Calm - N/A   Overcast
11:55 AM 66.2 °F 57.7 °F 74% 29.91 in 10.0 mi WNW 3.5 mph - N/A   Overcast
12:15 PM 65.1 °F 59.2 °F 81% 29.90 in 5.0 mi Calm Calm - N/A Rain Rain
12:35 PM 63.5 °F 59.4 °F 86% 29.91 in 5.0 mi North 3.5 mph - N/A Rain Rain
12:55 PM 63.0 °F 59.4 °F 88% 29.90 in 5.0 mi NNE 6.9 mph - N/A Rain Rain
1:15 PM 62.1 °F 58.6 °F 89% 29.91 in 3.0 mi NNE 6.9 mph - N/A Rain Heavy Rain
1:35 PM 61.7 °F 58.5 °F 89% 29.86 in 3.0 mi ENE 9.2 mph - N/A Rain Rain
1:55 PM 61.7 °F 58.6 °F 90% 29.86 in 3.0 mi NE 6.9 mph - N/A Rain Rain
2:15 PM 61.7 °F 59.0 °F 91% 29.86 in 2.5 mi ENE 6.9 mph - N/A Rain Heavy Rain
2:55 PM 62.1 °F 59.5 °F 91% 29.83 in 4.0 mi East 6.9 mph - N/A Rain Rain
3:15 PM 62.2 °F 59.9 °F 92% 29.81 in 3.0 mi East 9.2 mph - N/A Rain Rain
3:35 PM 62.6 °F 59.9 °F 91% 29.79 in 3.0 mi ENE 6.9 mph - N/A Rain , Thunderstorm Rain
3:55 PM 62.2 °F 59.9 °F 92% 29.82 in 4.0 mi ESE 4.6 mph - N/A Rain Rain
4:15 PM 62.1 °F 59.7 °F 92% 29.79 in 4.0 mi East 9.2 mph - N/A Rain Rain
4:35 PM 62.2 °F 59.9 °F 92% 29.79 in 7.0 mi ESE 8.1 mph - N/A Rain Rain
4:55 PM 62.6 °F 60.1 °F 91% 29.77 in 7.0 mi ESE 8.1 mph - N/A Rain Light Rain
5:15 PM 62.8 °F 60.3 °F 91% 29.78 in 7.0 mi ESE 4.6 mph - N/A Rain Light Rain
5:35 PM 62.8 °F 60.3 °F 91% 29.78 in 4.0 mi East 3.5 mph - N/A Rain Rain
5:55 PM 62.6 °F 60.1 °F 91% 29.73 in 5.0 mi SSE 9.2 mph - N/A Rain Light Rain
6:15 PM 62.6 °F 60.1 °F 91% 29.71 in 7.0 mi SSE 9.2 mph 16.1 mph N/A Rain Rain
6:35 PM 62.6 °F 60.1 °F 91% 29.71 in 7.0 mi SSE 9.2 mph - N/A   Drizzle
6:55 PM 62.8 °F 60.3 °F 91% 29.74 in 10.0 mi South 8.1 mph 16.1 mph N/A Rain Light Rain
7:15 PM 63.0 °F 60.4 °F 91% 29.76 in 7.0 mi South 9.2 mph - N/A Rain Light Rain
7:35 PM 63.1 °F 60.4 °F 91% 29.75 in 7.0 mi South 6.9 mph - N/A Rain Rain
7:55 PM 63.0 °F 60.4 °F 91% 29.74 in 7.0 mi South 8.1 mph - N/A Rain Rain
8:15 PM 63.1 °F 60.4 °F 91% 29.73 in 7.0 mi South 5.8 mph 16.1 mph N/A Rain Light Rain
8:35 PM 63.1 °F 60.3 °F 90% 29.76 in 7.0 mi South 5.8 mph - N/A Rain Rain
8:55 PM 62.8 °F 59.9 °F 90% 29.76 in 7.0 mi South 5.8 mph - N/A Rain Rain
9:15 PM 63.0 °F 59.9 °F 90% 29.77 in 10.0 mi Calm Calm - N/A Rain Rain
9:35 PM 62.8 °F 59.5 °F 89% 29.77 in 10.0 mi SSW 5.8 mph - N/A   Drizzle
9:55 PM 62.6 °F 59.5 °F 90% 29.78 in 10.0 mi WSW 4.6 mph - N/A Rain Rain
10:15 PM 62.6 °F 59.4 °F 89% 29.79 in 10.0 mi SW 3.5 mph - N/A   Drizzle
10:35 PM 62.6 °F 59.4 °F 89% 29.80 in 10.0 mi WSW 3.5 mph - N/A Rain Rain
10:55 PM 62.2 °F 59.2 °F 90% 29.81 in 10.0 mi Calm Calm - N/A Rain Rain
11:15 PM 62.2 °F 59.4 °F 90% 29.80 in 7.0 mi WSW 3.5 mph - N/A Rain Light Rain
11:35 PM 62.1 °F 59.2 °F 90% 29.79 in 7.0 mi WSW 4.6 mph - N/A Rain Light Rain
11:55 PM 62.1 °F 59.2 °F 90% 29.79 in 7.0 mi WSW 3.5 mph - N/A Rain Rain